Terminal Aerodrome Forecast
Issued by NWS Corpus Christi, TX

Home | Current Version | Previous Version | Text Only | Print | Product List | Glossary On
Versions: 1 2 3 4 5 6 7 8 9 10 11 12 13
000
FTUS44 KCRP 260500
TAFCRP
TAF
KCRP 260532Z 2606/2706 19004KT P6SM SKC
     FM260900 VRB03KT 4SM BR SKC
     FM261100 VRB02KT 2SM BR SKC
      TEMPO 2611/2613 1/2SM FG VV002
     FM261400 19006KT P6SM FEW020
     FM262100 14012KT P6SM SKC=

USA.gov is the U.S. government's official web portal to all federal, state and local government web resources and services.